This demonstration page uses our WeatherBlox Daily Observations layout. Learn more.

Left ArrowRight Arrow

38.83388, -104.82136

Hourly Observations for May 18, 2018

Temp ( °F °C ) Dew Point ( °F °C ) Humidity (%) Winds ( mph kmh ) Pressure ( in mb ) Visibility ( mi km ) Precip ( " mm )
12:58 am 00:58 Clear 67 19.6 10 -12.5 10 10 W 12 19 29.28 992 10 16 0.00 0.00
1:58 am 01:58 Mostly Cloudy 67 19.6 10 -12.2 11 11 NW 14 22 29.26 991 10 16 0.00 0.00
2:30 am 02:30 Mostly Cloudy 64 18 27 -3 24 24 N 14 22 29.32 993 10 16 0.00 0.00
2:40 am 02:40 Mostly Cloudy 59 15 30 -1 34 34 NW 17 28 29.33 993 10 16 0.00 0.00
2:59 am 02:59 Mostly Cloudy 59 15 30 -1.2 33 33 NW 17 28 29.33 993 10 16 0.00 0.00
3:02 am 03:02 Mostly Cloudy 59 15 32 0 36 36 N 20 31 29.32 993 10 16 0.00 0.00
3:58 am 03:58 Clear 58 14.3 29 -1.8 33 33 NW 24 39 29.32 993 10 16 0.00 0.00
4:58 am 04:58 Clear 58 14.3 33 0.5 39 39 NW 29 46 29.32 993 10 16 0.00 0.00
5:58 am 05:58 Sunny 57 13.7 33 0.8 42 42 NNW 15 24 29.38 995 10 16 0.00 0.00
6:58 am 06:58 Sunny 56 13.3 37 2.8 49 49 NNW 17 28 29.39 995 10 16 0.00 0.00
7:58 am 07:58 Sunny 58 14.6 38 3.4 47 47 NNW 21 33 29.39 995 10 16 0.00 0.00
8:58 am 08:58 Sunny 60 15.4 40 4.4 48 48 N 17 28 29.38 995 10 16 0.00 0.00
9:58 am 09:58 Sunny 60 15.5 42 5.5 52 52 N 17 28 29.41 996 10 16 0.00 0.00
10:58 am 10:58 Sunny 63 17 41 4.8 45 45 NNE 15 24 29.40 996 10 16 0.00 0.00
11:10 am 11:10 Sunny 63 17 41 5 45 45 NNE 15 24 29.40 996 10 16 0.00 0.00
11:58 am 11:58 Mostly Sunny 66 18.8 41 5.2 41 41 NE 8 13 29.40 996 10 16 0.00 0.00
12:58 pm 12:58 Partly Cloudy 68 20 40 4.6 36 36 ESE 6 9 29.36 994 10 16 0.00 0.00
1:58 pm 13:58 Mostly Cloudy 64 17.9 44 6.8 48 48 ESE 15 24 29.38 995 10 16 0.00 0.00
2:26 pm 14:26 Mostly Cloudy 61 16 45 7 55 55 E 15 24 29.39 995 10 16 0.00 0.00
2:51 pm 14:51 Mostly Cloudy 59 15 46 8 63 63 ESE 16 26 29.45 997 10 16 0.00 0.00
2:58 pm 14:58 Mostly Cloudy 59 14.8 46 7.7 63 63 ESE 13 20 29.46 998 10 16 0.00 0.00
3:50 pm 15:50 Mostly Cloudy with Thunderstorms 55 13 46 8 72 72 NE 8 13 29.54 1000 10 16 0.00 0.00
3:58 pm 15:58 Mostly Cloudy with Thunderstorms 56 13.1 46 7.6 70 70 N 10 17 29.52 1000 10 16 0.00 0.00
4:08 pm 16:08 Mostly Cloudy with Thunderstorms 55 13 46 8 72 72 N 18 30 29.52 1000 10 16 0.00 0.00
4:25 pm 16:25 Mostly Cloudy with Light Showers and Scattered Storms 52 11 45 7 77 77 N 16 26 29.50 999 10 16 0.00 0.00
4:39 pm 16:39 Mostly Cloudy with Nearby Thunderstorms 55 13 39 4 55 55 N 15 24 29.47 998 10 16 0.00 0.00
4:47 pm 16:47 Mostly Cloudy with Nearby Thunderstorms 52 11 43 6 72 72 NW 16 26 29.50 999 10 16 0.00 0.00
4:49 pm 16:49 Mostly Cloudy with Light Showers 52 11 41 5 67 67 NW 16 26 29.50 999 10 16 0.00 0.00
4:58 pm 16:58 Mostly Cloudy with Light Showers 56 13.2 26 -3.3 32 32 W 7 11 29.48 998 10 16 0.00 0.00
5:05 pm 17:05 Mostly Cloudy 61 16 27 -3 27 27 SE 8 13 29.46 998 10 16 0.00 0.00
5:08 pm 17:08 Mostly Cloudy with Light Showers 61 16 27 -3 27 27 SSE 17 28 29.46 998 10 16 0.00 0.00
5:26 pm 17:26 Cloudy 54 12 41 5 63 63 SSE 13 20 29.50 999 10 16 0.00 0.00
5:31 pm 17:31 Cloudy with Thunderstorms 52 11 43 6 72 72 SSW 10 17 29.51 999 10 16 0.00 0.00
5:35 pm 17:35 Cloudy with Thunderstorms 52 11 41 5 67 67 S 10 17 29.51 999 10 16 0.00 0.00
5:46 pm 17:46 Cloudy with Light Showers and Nearby Thunderstorms 52 11 43 6 72 72 SSE 13 20 29.49 999 10 16 0.00 0.00
5:58 pm 17:58 Mostly Cloudy with Light Showers 51 10.8 37 2.9 58 58 S 16 26 29.49 999 10 16 0.00 0.00
6:11 pm 18:11 Mostly Cloudy 55 13 34 1 44 44 SE 9 15 29.50 999 10 16 0.00 0.00
6:22 pm 18:22 Mostly Cloudy with Light Showers 57 14 30 -1 36 36 SSE 13 20 29.50 999 10 16 0.00 0.00
6:39 pm 18:39 Mostly Cloudy 59 15 30 -1 34 34 Calm 29.46 998 10 16 0.00 0.00
6:58 pm 18:58 Cloudy with Nearby Thunderstorms 53 11.4 38 3.2 57 57 NNW 15 24 29.49 999 10 16 0.00 0.00
7:31 pm 19:31 Mostly Cloudy with Light Showers 54 12 34 1 47 47 NW 14 22 29.50 999 10 16 0.00 0.00
7:37 pm 19:37 Mostly Cloudy with Light Showers 55 13 36 2 47 47 WNW 15 24 29.49 999 10 16 0.00 0.00
7:51 pm 19:51 Mostly Cloudy with Light Showers 57 14 34 1 41 41 NNW 13 20 29.47 998 10 16 0.00 0.00
7:58 pm 19:58 Mostly Cloudy with Light Showers 55 12.9 34 1.3 45 45 NW 13 20 29.48 998 10 16 0.00 0.00
8:09 pm 20:09 Mostly Cloudy 55 13 34 1 44 44 NNW 16 26 29.46 998 10 16 0.00 0.00
8:58 pm 20:58 Mostly Cloudy 56 13.4 31 -0.4 39 39 NNW 14 22 29.46 998 10 16 0.00 0.00
9:50 pm 21:50 Mostly Cloudy 57 14 30 -1 36 36 WNW 20 31 29.46 998 10 16 0.00 0.00
9:58 pm 21:58 Mostly Cloudy 57 13.7 29 -1.6 35 35 WNW 17 28 29.46 998 10 16 0.00 0.00
10:01 pm 22:01 Mostly Cloudy 57 14 28 -2 33 33 W 13 20 29.47 998 10 16 0.00 0.00
10:05 pm 22:05 Mostly Cloudy 57 14 28 -2 33 33 WNW 13 20 29.46 998 10 16 0.00 0.00
10:58 pm 22:58 Mostly Cloudy 55 12.8 34 0.9 44 44 S 6 9 29.48 998 10 16 0.00 0.00
11:58 pm 23:58 Mostly Cloudy 51 10.8 37 2.7 58 58 NNW 9 15 29.50 999 10 16 0.00 0.00

Powered by AerisWeather